Location: Kitt Peak
(31.9639°N, 111.5992°W)
Time: 20:51:59
(UTC-07:00)

YUBILEINY - Visible Passes

Search period start: 18 September 2024 00:00
Search period end: 28 September 2024 00:00
Orbit: 1478 x 1508 km, 82.5° (Epoch: 18 September)

Date Brightness Start Highest point End Pass type
(mag) Time Alt. Az. Time Alt. Az. Time Alt. Az.
18 Sep ? 01:33:46 22° ENE 01:33:46 22° ENE 01:38:41 10° NE visible
18 Sep ? 03:29:42 55° NW 03:29:42 55° NW 03:36:58 10° N visible
19 Sep ? 02:40:56 54° NNE 02:40:56 54° NNE 02:47:26 10° N visible
19 Sep ? 04:36:52 19° WNW 04:36:52 19° WNW 04:42:03 10° NNW visible
20 Sep ? 01:52:09 31° NE 01:52:09 31° NE 01:57:14 10° NNE visible
20 Sep ? 03:48:04 34° NW 03:48:04 34° NW 03:54:02 10° N visible
21 Sep ? 01:03:19 16° ENE 01:03:19 16° ENE 01:05:52 10° NE visible
21 Sep ? 02:59:15 45° N 02:59:15 45° N 03:04:58 10° N visible
21 Sep ? 04:55:11 10° WNW 04:55:11 10° WNW 04:55:41 10° NW visible
22 Sep ? 02:10:24 36° NNE 02:10:24 36° NNE 02:15:14 10° NNE visible
22 Sep ? 04:06:20 21° NW 04:06:20 21° NW 04:10:35 10° NNW visible
23 Sep ? 01:21:32 22° NE 01:21:32 22° NE 01:24:46 10° NNE visible
23 Sep ? 03:17:28 32° NNW 03:17:28 32° NNW 03:22:10 10° N visible
24 Sep ? 00:32:39 10° NE 00:32:39 10° NE 00:32:40 10° NE visible
24 Sep ? 02:28:34 34° N 02:28:34 34° N 02:32:53 10° N visible
24 Sep ? 04:24:30 12° NW 04:24:30 12° NW 04:26:04 10° NW visible
25 Sep ? 01:39:39 25° NNE 01:39:39 25° NNE 01:42:58 10° NNE visible
25 Sep ? 03:35:35 21° NW 03:35:35 21° NW 03:38:59 10° NNW visible
26 Sep ? 00:50:43 15° NE 00:50:43 15° NE 00:52:12 10° NNE visible
26 Sep ? 02:46:39 27° NNW 02:46:39 27° NNW 02:50:14 10° N visible
27 Sep ? 01:57:41 25° N 01:57:41 25° N 02:00:45 10° N visible
27 Sep ? 03:53:37 13° NW 03:53:37 13° NW 03:55:05 10° NNW visible
